TimeCST,TemperatureF,Dew PointF,Humidity,Sea Level PressureIn,VisibilityMPH,Wind Direction,Wind SpeedMPH,Gust SpeedMPH,PrecipitationIn,Events,Conditions,WindDirDegrees,DateUTC
12:53 AM,39.9,35.1,83,29.90,10.0,Calm,Calm,-,0.00,,Overcast,0,2013-02-13 06:53:00
1:53 AM,41.0,34.0,76,29.88,10.0,NNW,5.8,-,N/A,,Overcast,340,2013-02-13 07:53:00
2:53 AM,41.0,33.1,73,29.88,10.0,NNW,5.8,-,N/A,,Overcast,330,2013-02-13 08:53:00
3:37 AM,39.2,33.8,81,29.87,10.0,North,11.5,-,0.00,Rain,Light Rain,10,2013-02-13 09:37:00
3:53 AM,39.9,34.0,79,29.88,9.0,North,13.8,-,0.00,Rain,Light Rain,10,2013-02-13 09:53:00
4:44 AM,37.4,33.8,87,29.87,7.0,North,11.5,-,0.00,Rain,Light Rain,360,2013-02-13 10:44:00
4:53 AM,37.9,34.0,86,29.88,7.0,North,11.5,-,0.00,Rain,Light Rain,360,2013-02-13 10:53:00
5:02 AM,37.4,33.8,87,29.87,7.0,North,8.1,-,0.00,Rain,Light Rain,360,2013-02-13 11:02:00
5:15 AM,37.4,33.8,87,29.88,6.0,North,6.9,-,0.00,Rain,Light Rain,350,2013-02-13 11:15:00
5:53 AM,37.0,34.0,89,29.88,6.0,North,8.1,-,0.01,Rain,Light Rain,360,2013-02-13 11:53:00
6:32 AM,35.6,33.8,93,29.88,6.0,North,6.9,-,0.00,,Overcast,360,2013-02-13 12:32:00
6:53 AM,36.0,34.0,93,29.89,6.0,North,4.6,-,0.00,,Overcast,350,2013-02-13 12:53:00
7:43 AM,37.4,33.8,87,29.91,4.0,NNW,6.9,-,N/A,,Overcast,340,2013-02-13 13:43:00
7:53 AM,37.0,34.0,89,29.92,3.0,NNW,8.1,-,N/A,,Overcast,340,2013-02-13 13:53:00
8:26 AM,37.4,33.8,87,29.93,3.0,North,6.9,-,0.00,,Overcast,350,2013-02-13 14:26:00
8:46 AM,37.4,35.6,93,29.94,4.0,North,6.9,-,0.00,,Overcast,350,2013-02-13 14:46:00
8:53 AM,37.9,34.0,86,29.95,4.0,NNW,5.8,-,0.00,Rain,Light Rain,340,2013-02-13 14:53:00
9:53 AM,39.0,35.1,86,29.95,5.0,NNW,6.9,-,0.00,Rain,Light Rain,330,2013-02-13 15:53:00
10:53 AM,39.9,36.0,86,29.95,9.0,WSW,4.6,-,0.00,,Overcast,240,2013-02-13 16:53:00
11:53 AM,43.0,37.0,80,29.94,10.0,WSW,4.6,-,N/A,,Mostly Cloudy,240,2013-02-13 17:53:00
12:53 PM,46.0,36.0,68,29.91,10.0,SSW,9.2,-,N/A,,Clear,210,2013-02-13 18:53:00
1:53 PM,48.0,36.0,63,29.90,10.0,SW,11.5,16.1,N/A,,Clear,220,2013-02-13 19:53:00
2:53 PM,48.0,37.0,66,29.89,10.0,SW,8.1,-,N/A,,Scattered Clouds,230,2013-02-13 20:53:00
3:53 PM,48.0,37.0,66,29.88,10.0,SSW,13.8,-,N/A,,Clear,200,2013-02-13 21:53:00
4:53 PM,46.9,37.9,71,29.88,10.0,SSW,9.2,-,N/A,,Clear,200,2013-02-13 22:53:00
5:53 PM,44.1,37.0,76,29.89,10.0,SSW,9.2,-,N/A,,Clear,200,2013-02-13 23:53:00
6:53 PM,44.1,37.0,76,29.90,10.0,South,15.0,-,N/A,,Clear,190,2013-02-14 00:53:00
7:53 PM,43.0,37.0,80,29.91,10.0,South,11.5,-,N/A,,Clear,190,2013-02-14 01:53:00
8:53 PM,42.1,36.0,79,29.92,10.0,SSW,12.7,-,N/A,,Clear,210,2013-02-14 02:53:00
9:53 PM,41.0,37.0,86,29.93,10.0,SSW,8.1,-,N/A,,Clear,210,2013-02-14 03:53:00
10:53 PM,39.9,36.0,86,29.94,10.0,Calm,Calm,-,N/A,,Clear,0,2013-02-14 04:53:00
11:53 PM,37.9,35.1,89,29.95,10.0,South,5.8,-,N/A,,Clear,190,2013-02-14 05:53:00